Location: Asheville, NC
(35.6000°N, 82.5500°W)
Time: 07:20:39
(UTC-04:00)

Vanguard 2 - Pass Details

Date: 10 December 2017
Orbit: 553 x 2939 km, 32.9° (Epoch: 19 June)

Event Time Altitude Azimuth Distance (km) Brightness Sun altitude
Rises 19:30:50 0° 268° (W) 3,002 11.9 -26.4°
Reaches altitude 10° 19:33:22 10° 265° (W) 1,940 10.6 -26.9°
Enters shadow 19:36:29 43° 237° (WSW) 789 7.9 -27.5°
